Location: Mason-Dixon Star Party
(40.0361°N, 76.9958°W)
Time: 05:13:06
(UTC-04:00)

Daily predictions for brighter satellites

Satellite Brightness Start Highest point End
(mag) Time Altitude Azimuth Time Altitude Azimuth Time Altitude Azimuth
ATLAS CENTAUR R/B 4.2 00:16:16 75° W 00:17:09 80° NW 00:41:21 10° NE
Cosmos 2278 Rocket 4.2 00:23:40 10° NNW 00:25:52 24° N 00:25:52 24° N
ATLAS 3B R/B 4.1 00:38:24 32° NE 00:38:24 32° NE 00:42:03 10° NE
Cosmos 2219 Rocket 4.4 01:17:15 21° N 01:17:15 21° N 01:19:15 10° N
SL-16 R/B 4.3 01:37:57 22° NNE 01:37:57 22° NNE 01:39:53 10° NNE
Cosmos 2237 Rocket 4.3 01:39:41 22° N 01:39:41 22° N 01:41:55 10° N
CZ-4C R/B 4.4 01:40:57 21° NE 01:40:57 21° NE 01:42:53 10° NE
Cosmos 2333 Rocket 4.3 01:45:35 22° NNW 01:45:35 22° NNW 01:48:02 10° N
ATLAS 3B R/B 4.2 02:25:38 29° NW 02:25:59 29° NW 02:32:18 10° NNE
Resurs 1-4 Rocket 4.3 02:40:56 10° NE 02:43:54 17° E 02:43:54 17° E
CZ-3A R/B 3.9 02:45:24 63° SSE 02:46:50 68° ESE 03:33:22 10° NE
Cosmos 2369 Rocket 3.6 02:49:07 10° NNW 02:52:13 32° N 02:52:13 32° N
Cosmos 1943 Rocket 3.7 03:01:01 10° N 03:06:04 32° ENE 03:08:54 21° ESE
SL-16 R/B 4.4 03:19:50 14° NW 03:19:50 14° NW 03:22:15 10° NNW
USA 234 3.8 03:15:24 10° ENE 03:21:30 46° SE 03:21:30 46° SE
CZ-4C R/B 4.0 03:26:08 22° NW 03:26:15 22° NW 03:30:52 10° NNE
IRS-1D 4.2 03:26:45 10° NNE 03:31:25 53° ENE 03:31:25 53° ENE
ARIANE 5 R/B 3.0 03:30:19 10° NNE 03:34:53 59° ENE 03:34:53 59° ENE
ATLAS 5 CENTAUR R/B 2.5 03:38:58 52° NNE 03:38:58 52° NNE 03:42:57 10° NNE
NOSS 3-2 (A) 4.5 03:40:16 34° NW 03:40:31 34° NW 03:46:34 10° NNE
SL-16 R/B 2.6 03:41:16 58° SE 03:42:30 75° ENE 03:48:42 10° N
Cosmos 1733 Rocket 4.3 03:38:31 10° N 03:41:43 40° NE 03:41:43 40° NE
Cosmos 1709 Rocket 3.9 03:39:07 10° N 03:45:29 90° E 03:45:50 81° S
CENTAUR R/B 2.5 03:47:14 66° SSE 03:47:44 69° ESE 03:54:27 10° NE
ADEOS 4.1 03:49:19 10° N 03:53:28 49° NNW 03:53:28 49° NNW
CZ-2D R/B 1.9 03:55:29 10° NNE 04:00:46 85° ESE 04:00:54 83° SE
Cosmos 2074 Rocket 4.4 04:02:51 10° N 04:09:00 60° E 04:15:09 10° SSE
Cosmos 1908 Rocket 4.3 04:10:17 10° N 04:14:33 50° E 04:16:29 29° SE
Cosmos 2184 Rocket 4.3 04:10:10 10° N 04:16:32 67° E 04:22:49 10° SSE
EO 1 Del DPAF 4.0 04:19:42 46° NNW 04:19:42 46° NNW 04:22:31 10° NNW
SL-27 R/B 3.5 04:20:01 43° N 04:20:01 43° N 04:22:33 10° NNE
UNKNOWN OBJECT B 3.2 04:19:03 10° N 04:21:58 53° N 04:21:58 53° N
Resurs 1-4 Rocket 2.1 04:19:20 10° N 04:24:29 57° WNW 04:24:59 55° W
Cosmos 1862 3.4 04:25:14 10° N 04:29:13 71° E 04:30:09 49° SSE
Okean O Rocket 2.2 04:26:02 10° NNE 04:30:27 56° E 04:32:24 30° SSE
Cosmos 2221 Rocket 4.2 04:29:08 29° SSE 04:31:10 54° E 04:35:28 10° NNE
Cosmos 1703 Rocket 4.0 04:30:10 34° SSE 04:31:57 63° E 04:36:23 10° NNE
Cosmos 1869 4.3 04:33:54 33° NW 04:33:54 33° NW 04:36:37 10° N
ADEOS II 4.4 04:29:14 10° NE 04:33:15 22° E 04:37:13 10° SE
COSMOS 2406 3.2 04:37:42 43° SW 04:39:38 72° WNW 04:45:24 10° NNE
Cosmos 1455 4.1 04:43:33 19° NW 04:43:33 19° NW 04:45:19 10° NNW
Sich 1 Rocket 3.6 04:41:52 10° NNW 04:46:10 55° W 04:46:53 49° SW
CZ-4B R/B 3.4 04:42:49 10° NNE 04:48:07 68° ESE 04:52:34 15° S
Cosmos 1408 2.5 04:44:24 10° NNW 04:48:09 71° W 04:48:48 56° SSW
Cosmos 1943 Rocket 2.6 04:44:41 10° NW 04:49:48 36° WSW 04:50:12 36° WSW
MOZ.5/SAFIR/RUBIN 5/SL-8 3.6 04:45:19 10° SSE 04:49:56 85° WSW 04:54:37 10° NNW
Cosmos 2285 Rocket 3.9 04:43:41 10° NNW 04:50:04 70° WSW 04:56:23 10° S
Cosmos 1933 3.5 04:51:40 48° WSW 04:52:17 55° W 04:56:20 10° N
CZ-4B DEB 4.4 04:46:55 10° NNE 04:52:23 69° ESE 04:57:35 11° S
IRS-1C Rocket 4.0 04:49:23 10° NNE 04:54:42 80° WNW 04:58:06 23° SSW
Cosmos 407 Rocket 3.6 04:51:35 21° S 04:55:06 75° ESE 05:00:23 10° NNE
Okean 1-7 3.1 04:54:53 18° S 04:58:00 77° E 05:02:23 10° N
SeaSat 1 2.4 04:53:23 10° SSE 04:58:19 87° WSW 05:03:17 10° NNW
Atlas Centaur 2 3.0 04:59:34 19° S 05:00:26 20° SSE 05:03:55 10° ESE
USA 234 3.6 04:58:22 10° NE 05:04:41 53° NW 05:08:50 22° W
CZ-4B R/B 2.6 05:02:08 10° N 05:05:51 84° WNW 05:08:16 22° SSW
GPS 2-05 Rocket1 3.7 05:05:26 31° S 05:05:55 32° S 05:08:58 10° ESE
Aureole 3 Rocket 3.7 05:05:28 10° SSW 05:12:10 67° W 05:16:54 10° N
ARIANE 5 R/B 4.2 05:10:55 10° NNW 05:14:05 16° WNW 05:15:13 15° WNW
Cosmos 1825 2.9 05:11:25 10° NNW 05:14:47 30° W 05:15:21 29° WSW
Cosmos 1656 Rocket 3.8 05:09:47 10° NW 05:14:57 47° WSW 05:20:06 10° S
Okean 2 Rocket 3.1 05:14:20 10° NNW 05:18:50 66° W 05:23:17 10° S
PSLV R/B 4.5 05:15:55 10° N 05:19:22 34° WNW 05:20:51 25° WSW
Abrixas rocket 2.3 05:19:35 12° NW 05:22:33 75° NNE 05:25:54 10° ESE
ATLAS 5 CENTAUR R/B 4.0 05:20:31 10° WNW 05:23:21 15° NNW 05:26:29 10° N
ADEOS Rocket 3.7 05:17:13 10° NNE 05:25:03 81° ESE 05:32:43 10° SSW
Nadezhda 1 Rocket 4.4 05:21:21 14° SW 05:26:28 44° WNW 05:32:32 10° N
SL-16 R/B 3.9 05:26:21 16° W 05:26:42 16° W 05:30:21 10° NW
PSLV R/B 3.9 05:28:59 22° WSW 05:30:40 37° SSW 05:33:51 10° SE
Cosmos 1782 Rocket 4.1 05:28:10 10° NNW 05:32:08 35° W 05:36:05 10° SSW
Meteor 1-31 Rocket 3.9 05:34:00 10° NNE 05:37:40 44° E 05:41:19 10° S
AVUM R/B 4.4 05:37:18 18° WSW 05:38:55 27° WNW 05:41:50 10° N
CENTAUR R/B 3.8 05:34:26 13° W 05:39:03 27° NW 05:44:54 10° NNE
CZ-2D R/B 4.0 05:37:58 10° NW 05:40:05 12° WNW 05:42:12 10° W
COSMOS 2487 3.7 05:44:02 14° WSW 05:46:18 25° WNW 05:49:22 10° N
Cosmos 2181 Rocket 4.1 05:40:35 10° SSW 05:46:59 70° W 05:53:21 10° N
Meteor 1-25 Rocket 4.2 05:41:32 10° N 05:47:06 83° W 05:52:41 10° S
BREEZE-M DEB (TANK) 3.8 05:45:01 14° W 05:47:12 50° NNW 05:52:54 10° NE
Meteor 1-20 Rocket 4.3 05:45:51 10° N 05:51:36 88° W 05:57:25 10° S
Cosmos 1295 Rocket 4.4 05:47:10 10° N 05:53:17 75° W 05:59:25 10° S
COSMO-SKYMED 1 4.2 05:52:37 10° SE 05:56:40 40° ENE 06:00:44 10° N
Cosmos 1697 Rocket 4.4 05:51:33 10° N 05:56:46 38° ENE 06:01:56 10° SE
Thor Agena Rocket 4.2 05:54:09 10° SSW 05:58:47 33° W 06:03:29 10° NNW
Cosmos 1023 Rocket 4.4 05:56:07 10° SSW 06:01:10 71° WNW 06:06:17 10° NNE
Cosmos 1954 Rocket 4.3 05:56:51 10° SW 06:01:50 48° WNW 06:06:53 10° N
Cosmos 1242 Rocket 4.2 05:59:43 10° SSE 06:03:10 39° E 06:06:40 10° NNE
Cosmos 1356 3.4 06:02:09 10° NNW 06:05:40 64° W 06:09:09 10° S
Okean O Rocket 3.5 06:03:58 10° NNW 06:06:20 14° WNW 06:08:42 10° W
Cosmos 1400 Rocket 2.8 06:05:33 10° N 06:09:28 86° E 06:13:19 10° S
Meteor PRIRODA 4.2 06:06:13 10° N 06:09:46 40° WNW 06:13:18 10° SW
USA 229 DEB 4.2 06:03:42 10° SSW 06:10:31 65° ESE 06:17:25 10° NE
Cosmos 2278 3.7 06:04:54 10° NNW 06:10:33 64° WSW 06:16:11 10° S
USA 229 4.2 06:03:49 10° SSW 06:10:37 65° ESE 06:17:31 10° NE
